Weather in Evian-les-Bains

France     46°24′00″N   6°34′57″E
temp.,
°C
wind,
m/s
gust,
m/s
humid.,
%
clouds,
%
prec.,
mm/h
press.,
hPa
HPBL,
m
11 april, sun
sun1123:00+10wsw3570100 0.0 1013213
02:00+9wsw3574100 0.0 1013198
05:00+8sw3475100 0.0 1012194
08:00+8wsw237879 0.0 1012189
11:00+11sw246578 0.0 1012468
14:00+15s46568 0.0 1010956
17:00+16sw5857100 0.4 10091314
20:00+11w5681100 2.3 1012485
12 april, mon
mon1223:00+8nw3389100 2.8 1016319
02:00+5w3492100 9.8 1019587
05:00+3w2297100 5.1 1021418
08:00+3n1297100 8.8 1023306
11:00+3nne3495100 2.4 1023434
14:00+5nne5785100 3.4 1024877
17:00+5nne81082100 0.9 10241176
20:00+4ne81377100 1.2 10261164
13 april, tue
tue1323:00+3nne8138057 0.0 1027977
02:00+1nne81385100 0.0 1028769
05:000nne6118598 0.0 1028665
08:00+1nne6128021 0.0 1028715
11:00+5ne9126622 0.0 10281406
14:00+7ne8105688 0.1 10272080
17:00+7ne795840 0.1 10261639
20:00+5nne710745 0.2 1028746
14 april, wed
wed1423:00+2nne7119036 0.0 1029623
02:00+3nne7118133 0.1 1028863
05:00+1nne712836 0.0 1028650
08:00+1nne812849 0.0 1028718
11:00+5ne1012629 0.0 10271235
14:00+7ne10115018 0.0 10261818
17:00+7ne9105126 0.1 10251886
20:00+4nne912768 0.1 1025901
15 april, thu
thu1523:00+3nne914773 0.0 1026821
02:00+2nne813752 0.0 1026657
05:00+1nne813784 0.0 1026638
08:00+1nne914775 0.0 1026782
11:00+5ne11126114 0.0 10261231
14:00+7ne11114933 0.0 10241782
17:00+8ne10114731 0.0 10232147
20:00+5nne1114704 0.1 10241075